Weather History for Three Rivers, MI

Change the Weather History Date:

Saturday, August 31, 2013

  Actual Average Record
Temperature  
Mean Temperature 76 °F -  
Max Temperature 81 °F 81 °F 97 °F (1953)
Min Temperature 70 °F 56 °F 43 °F (1967)
Cooling Degree Days 10    
Growing Degree Days 26 (Base 50)    
Moisture  
Dew Point 68 °F    
Average Humidity 78    
Maximum Humidity 92    
Minimum Humidity 58    
Precipitation  
Precipitation 0.00 in - - ()
Sea Level Pressure  
Sea Level Pressure 29.84 in    
Wind  
Wind Speed 4 mph (NNW)    
Max Wind Speed 8 mph    
Max Gust Speed -    
Visibility 8 miles    
Events      
Averages and records for this station are not official NWS values.
T = Trace of Precipitation, MM = Missing Value Source: NWS Daily Summary

Daily Weather History Graph

Daily Weather History Graph

Search for Another Location

Airport:

Trip Planner

Search our weather history database for the weather conditions in past years. The results will help you decide how hot, cold, wet, or windy it might be!

Date:

Astronomy

Aug. 31, 2013 Rise Set
Actual Time 7:07 AM EDT 8:17 PM EDT
Civil Twilight 6:38 AM EDT 8:45 PM EDT
Nautical Twilight 6:04 AM EDT 9:20 PM EDT
Astronomical Twilight 5:27 AM EDT 9:56 PM EDT
Moon 2:32 AM EDT (8/31) 5:17 PM EDT (8/31)
Length of Visible Light 14h 07m
Length of Day
13h 09m
Waning Crescent, 21% of the Moon is Illuminated
Aug 31
Waning Crescent
Sep 5
New
Sep 12
First Quarter
Sep 19
Full
Sep 26
Last Quarter

Hourly Weather History & Observations

Time (EDT) Temp. Heat Index Dew Point Humidity Pressure Visibility Wind Dir Wind Speed Gust Speed Precip Events Conditions
12:14 AM 78.1 °F - 72.0 °F 81% 29.80 in 10.0 mi NNW 4.6 mph - N/A   Clear
12:35 AM 77.0 °F - 71.8 °F 84% 29.81 in 10.0 mi NNW 4.6 mph - N/A   Clear
12:54 AM 76.3 °F - 71.6 °F 85% 29.82 in 10.0 mi NNW 5.8 mph - N/A   Clear
1:14 AM 75.6 °F - 71.2 °F 86% 29.81 in 7.0 mi NW 4.6 mph - N/A   Clear
1:35 AM 75.2 °F - 71.1 °F 87% 29.81 in 7.0 mi NW 5.8 mph - N/A   Clear
1:54 AM 74.5 °F - 70.9 °F 88% 29.81 in 7.0 mi NW 4.6 mph - N/A   Clear
2:14 AM 73.9 °F - 70.7 °F 90% 29.81 in 5.0 mi NNW 5.8 mph - N/A   Scattered Clouds
2:35 AM 74.3 °F - 71.2 °F 90% 29.82 in 4.0 mi NNW 3.5 mph - N/A   Mostly Cloudy
2:54 AM 73.8 °F - 70.9 °F 91% 29.82 in 4.0 mi Calm Calm - N/A   Mostly Cloudy
3:15 AM 73.6 °F - 70.9 °F 91% 29.83 in 4.0 mi Calm Calm - N/A   Mostly Cloudy
3:35 AM 73.8 °F - 71.1 °F 91% 29.83 in 4.0 mi Calm Calm - N/A   Overcast
3:54 AM 73.9 °F - 71.2 °F 91% 29.83 in 4.0 mi Calm Calm - N/A   Overcast
4:15 AM 74.3 °F - 71.1 °F 90% 29.83 in 4.0 mi Calm Calm - N/A   Overcast
4:35 AM 73.9 °F - 70.7 °F 90% 29.83 in 4.0 mi WNW 4.6 mph - N/A   Overcast
4:54 AM 73.4 °F - 70.2 °F 90% 29.83 in 5.0 mi NW 5.8 mph - N/A   Overcast
5:15 AM 72.9 °F - 69.8 °F 90% 29.83 in 5.0 mi West 5.8 mph - N/A   Overcast
5:34 AM 72.1 °F - 69.3 °F 91% 29.83 in 4.0 mi NW 8.1 mph - N/A   Overcast
5:54 AM 71.2 °F - 68.9 °F 92% 29.84 in 4.0 mi WNW 6.9 mph - N/A   Overcast
6:15 AM 71.1 °F - 68.5 °F 92% 29.84 in 5.0 mi NW 4.6 mph - N/A   Overcast
6:34 AM 71.1 °F - 68.4 °F 91% 29.84 in 5.0 mi NNW 3.5 mph - N/A   Overcast
6:54 AM 71.1 °F - 68.0 °F 90% 29.84 in 7.0 mi NW 4.6 mph - N/A   Overcast
7:15 AM 70.9 °F - 68.0 °F 91% 29.83 in 5.0 mi NW 4.6 mph - N/A   Overcast
7:34 AM 70.9 °F - 68.0 °F 91% 29.84 in 5.0 mi NW 4.6 mph - N/A   Overcast
7:55 AM 71.1 °F - 68.0 °F 90% 29.85 in 5.0 mi WNW 3.5 mph - N/A   Overcast
8:15 AM 71.1 °F - 68.0 °F 90% 29.86 in 5.0 mi West 4.6 mph - N/A   Overcast
8:34 AM 70.0 °F - 67.1 °F 91% 29.86 in 7.0 mi NNW 6.9 mph - N/A   Overcast
8:55 AM 70.0 °F - 66.7 °F 89% 29.87 in 10.0 mi NNW 4.6 mph - N/A   Overcast
9:14 AM 70.7 °F - 66.9 °F 88% 29.87 in 10.0 mi NNW 4.6 mph - N/A   Overcast
9:35 AM 71.1 °F - 66.6 °F 86% 29.88 in 10.0 mi Calm Calm - N/A   Overcast
9:55 AM 71.6 °F - 66.7 °F 85% 29.87 in 10.0 mi Calm Calm - N/A   Overcast
10:14 AM 72.0 °F - 66.4 °F 83% 29.88 in 10.0 mi NE 4.6 mph - N/A   Overcast
10:35 AM 72.7 °F - 66.4 °F 81% 29.88 in 10.0 mi ENE 5.8 mph - N/A   Overcast
10:55 AM 73.4 °F - 66.4 °F 79% 29.88 in 10.0 mi ENE 5.8 mph - N/A   Overcast
11:14 AM 73.4 °F - 66.2 °F 78% 29.88 in 10.0 mi NNE 4.6 mph - N/A   Overcast
11:35 AM 74.1 °F - 65.5 °F 74% 29.88 in 10.0 mi Calm Calm - N/A   Overcast
11:54 AM 75.2 °F - 65.1 °F 71% 29.88 in 10.0 mi Calm Calm - N/A   Mostly Cloudy
12:14 PM 76.1 °F - 65.1 °F 69% 29.87 in 10.0 mi Calm Calm - N/A   Overcast
12:35 PM 76.1 °F - 64.8 °F 68% 29.86 in 10.0 mi NNE 5.8 mph - N/A   Mostly Cloudy
12:54 PM 76.5 °F - 64.6 °F 67% 29.87 in 10.0 mi Calm Calm - N/A   Scattered Clouds
1:15 PM 78.6 °F - 65.1 °F 63% 29.87 in 10.0 mi South 3.5 mph - N/A   Mostly Cloudy
1:35 PM 81.1 °F 82.9 °F 65.3 °F 58% 29.86 in 10.0 mi Calm Calm - N/A   Scattered Clouds
1:54 PM 80.2 °F 82.0 °F 64.9 °F 59% 29.85 in 10.0 mi SSW 3.5 mph - N/A   Scattered Clouds
2:15 PM 80.8 °F 82.6 °F 65.1 °F 59% 29.86 in 10.0 mi South 3.5 mph - N/A   Scattered Clouds
2:35 PM 79.2 °F - 65.1 °F 62% 29.86 in 10.0 mi Calm Calm - N/A   Clear
2:54 PM 80.2 °F 82.1 °F 65.3 °F 60% 29.86 in 10.0 mi WSW 3.5 mph - N/A   Clear
3:15 PM 79.7 °F - 65.7 °F 62% 29.85 in 10.0 mi SW 3.5 mph - N/A   Mostly Cloudy
3:35 PM 79.7 °F - 65.8 °F 62% 29.83 in 10.0 mi ESE 5.8 mph - N/A   Mostly Cloudy
3:54 PM 80.6 °F 82.7 °F 66.2 °F 61% 29.83 in 10.0 mi NNE 4.6 mph - N/A   Scattered Clouds
4:15 PM 80.4 °F 82.4 °F 65.8 °F 61% 29.84 in 10.0 mi WNW 3.5 mph - N/A   Clear
4:35 PM 80.6 °F 82.7 °F 66.2 °F 61% 29.83 in 10.0 mi SE 3.5 mph - N/A   Scattered Clouds
4:54 PM 80.2 °F 82.3 °F 66.2 °F 62% 29.83 in 10.0 mi ESE 5.8 mph - N/A   Scattered Clouds
5:15 PM 80.1 °F 82.1 °F 66.2 °F 62% 29.83 in 10.0 mi SE 3.5 mph - N/A   Clear
5:34 PM 81.0 °F 83.2 °F 66.4 °F 61% 29.81 in 10.0 mi East 5.8 mph - N/A   Clear
5:55 PM 79.7 °F - 66.4 °F 64% 29.81 in 10.0 mi ESE 4.6 mph - N/A   Scattered Clouds
6:14 PM 79.9 °F - 66.9 °F 64% 29.80 in 10.0 mi ESE 5.8 mph - N/A   Mostly Cloudy
6:35 PM 80.1 °F 82.2 °F 66.6 °F 63% 29.80 in 10.0 mi ENE 4.6 mph - N/A   Overcast
6:54 PM 79.7 °F - 66.4 °F 64% 29.80 in 10.0 mi ENE 5.8 mph - N/A   Mostly Cloudy
7:14 PM 78.8 °F - 66.4 °F 66% 29.81 in 10.0 mi ENE 3.5 mph - N/A   Mostly Cloudy
7:35 PM 78.1 °F - 67.1 °F 69% 29.81 in 10.0 mi Calm Calm - N/A   Scattered Clouds
7:54 PM 77.4 °F - 67.3 °F 71% 29.80 in 10.0 mi Calm Calm - N/A   Scattered Clouds
8:15 PM 76.1 °F - 67.5 °F 74% 29.82 in 10.0 mi Calm Calm - N/A   Clear
8:35 PM 75.2 °F - 68.0 °F 78% 29.82 in 10.0 mi Calm Calm - N/A   Clear
8:54 PM 73.9 °F - 67.3 °F 80% 29.83 in 10.0 mi Calm Calm - N/A   Clear
9:15 PM 73.4 °F - 67.5 °F 82% 29.82 in 10.0 mi Calm Calm - N/A   Clear
9:35 PM 72.1 °F - 67.5 °F 85% 29.83 in 10.0 mi Calm Calm - N/A   Mostly Cloudy
9:54 PM 72.7 °F - 68.0 °F 85% 29.83 in 10.0 mi Calm Calm - N/A   Overcast
10:15 PM 73.9 °F - 68.0 °F 82% 29.83 in 10.0 mi Calm Calm - N/A   Overcast
10:34 PM 74.5 °F - 68.0 °F 80% 29.82 in 10.0 mi East 5.8 mph - N/A   Overcast
10:55 PM 74.7 °F - 67.6 °F 79% 29.83 in 10.0 mi Calm Calm - N/A   Overcast
11:15 PM 74.3 °F - 67.5 °F 79% 29.83 in 10.0 mi Calm Calm - N/A   Overcast
11:34 PM 73.6 °F - 67.5 °F 81% 29.84 in 10.0 mi Calm Calm - N/A   Mostly Cloudy
11:55 PM 73.4 °F - 68.0 °F 83% 29.84 in 10.0 mi Calm Calm - N/A   Overcast